STARLINK-32210

Last updated on Fri Sep 20 2024 00:02:03 GMT+0000 (Coordinated Universal Time)

1 60594U 24150M 24263.58756656 -.00626636 00000+0 -13441-1 0 9995 2 60594 53.1583 279.1552 0001260 81.7829 278.3322 15.46523563 5930

Satellite not in orbit